Miscellaneous Local Product
Issued by NWS Hastings, NE

Home | Current Version | Previous Version | Graphics & Text | Print | Product List | Glossary On
Versions: 1 2 3 4 5 6 7 8 9 10 11 12 13 14 15 16 17 18 19 20 21 22 23 24 25 26 27 28 29 30 31 32 33 34 35 36 37 38 39 40 41 42 43 44 45 46 47 48 49 50
000
AXUS43 KGID 151702
MISGRI

GID CWA HOURLY WEATHER ROUNDUP
NATIONAL WEATHER SERVICE HASTINGS NE
1200 PM CDT TUE APR 15 2014

NOTE: "FAIR" INDICATES FEW OR NO CLOUDS BELOW 12,000 FEET WITH NO
SIGNIFICANT WEATHER AND/OR OBSTRUCTIONS TO VISIBILITY.

...SOUTH CENTRAL NEBRASKA...

CITY           SKY/WX    TMP DP  RH WIND       PRES   REMARKS
GRAND ISLAND   SUNNY     46  26  45 S16G26    30.06F
HASTINGS       SUNNY     47  24  40 S13G24    30.04F
ORD            SUNNY     43  23  45 S17G29    29.99F
YORK           SUNNY     43  27  52 S16       30.09F
AURORA         SUNNY     43  26  51 S16       30.08F
LEXINGTON      SUNNY     45  30  55 S15       29.98F
HOLDREGE       SUNNY     46  26  47 S16G22    30.02F
HEBRON         SUNNY     47  23  38 S9G17     30.12F

...NEBRASKA PANHANDLE...

CITY           SKY/WX    TMP DP  RH WIND       PRES   REMARKS
CHADRON        MOSUNNY   56  26  31 W13       29.79F
ALLIANCE       MOSUNNY   55  23  28 W20G26    29.82F
SCOTTSBLUFF    CLOUDY    54  24  31 W21G33    29.85F
SIDNEY         PTSUNNY   54  26  34 W15       29.90F

...WESTERN AND NORTH CENTRAL NEBRASKA...

CITY           SKY/WX    TMP DP  RH WIND       PRES   REMARKS
VALENTINE      MOSUNNY   54  22  28 S15       29.82F
AINSWORTH      SUNNY     48  23  37 S18G24    29.88F
ONEILL         SUNNY     44  16  32 S18G26    29.99F
BROKEN BOW     SUNNY     47  24  40 S18G29    29.94F
IMPERIAL       SUNNY     52  29  41 SW14      29.93F
NORTH PLATTE   SUNNY     53  26  35 S14G21    29.92F
MCCOOK         SUNNY     52  29  41 SW18G26   29.97F

...EASTERN NEBRASKA...

CITY           SKY/WX    TMP DP  RH WIND       PRES   REMARKS
NORFOLK        SUNNY     39  24  55 SE16G25   30.07F WCI  30
SO SIOUX CITY  SUNNY     37  22  54 S13       30.15F WCI  29
TEKAMAH        SUNNY     39  22  50 SE10      30.16F WCI  32
COLUMBUS       SUNNY     41  23  48 SE12G20   30.11F
ALBION         SUNNY     39  24  55 S17G23    30.06F WCI  30
OMAHA EPPLEY   MOSUNNY   40  19  43 SE8       30.17F WCI  34
OFFUTT AFB     SUNNY     41  20  41 VRB3      30.17F
MILLARD        SUNNY     39  19  45 S7        30.16F WCI  34
LINCOLN        SUNNY     45  19  35 SE7       30.15F
NEBRASKA CITY  SUNNY     41  17  38 S5        30.17F
BEATRICE       SUNNY     44  25  48 S10       30.15F
FALLS CITY     SUNNY     44  20  38 VRB3      30.18F

...NORTHERN KANSAS...

CITY           SKY/WX    TMP DP  RH WIND       PRES   REMARKS
GOODLAND       SUNNY     57  24  28 SW17G25   29.98F
HILL CITY      SUNNY     56  16  20 SW17G26   30.04F
PHILLIPSBURG   SUNNY     54  19  26 S12       30.05F
SMITH CENTER   SUNNY     50  19  29 S14G21    30.08F
BELOIT         SUNNY     52  19  28 S13G18    30.11F
HAYS           SUNNY     57  16  19 S17G24    30.08F
RUSSELL        SUNNY     54  17  23 SW15      30.08F
CONCORDIA      SUNNY     50  20  30 S16G24    30.12F
SALINA         SUNNY     52  22  30 S9G17     30.16F
TOPEKA         SUNNY     48  23  37 VRB3      30.21S



USA.gov is the U.S. government's official web portal to all federal, state and local government web resources and services.